STARLINK-4104, 53163

Orbit data source: Space-Track

STARLINK-4104, 53163 is a payload satellite owned by SpaceX/Seattle (US) in LEO that was launched on Sun, 17 Jul 2022 UTC via an FALCON 9 launch vehicle from the Air Force Eastern Test Range (AFETR). Payload-class satellites include a variety of spacecraft equipped with specific instruments for various scientific and technological missions. These include communications satellites like Starlink; space stations such as the ISS; scientific satellites like the Hubble; Earth observation satellites from companies like Planet Labs, Umbra, and HawkEye 360; GPS; miniature CubeSats for education and research; and military/defense satellites.

Loading next visibility...
Identifier
53163, 2022-083AH
Orbit
LEO
Country
Flag of USUS
Related business
Manufacturer
SpaceX/Seattle
Mission
Operational Commercial Communications
Bus & Motor
STARLINK, Unknown motor
Mass
297 kg wet, ~275 kg dry
Launch date (UTC)
2022-07-17 (4 years ago)
Launch vehicle
FALCON 9
Launch site
Air Force Eastern Test Range (AFETR)
Object type
Payload
Rocket body
Debris
Shape & HBR
Box + 1 Pan, 10.1 m
Radar Cross Section
13.562 m², Large (>1 m²)

Expand to show TLE details & history
Last TLE update: 2 days ago

TLE from 2 days ago
0 STARLINK-4104
1 53163U 22083AH  26170.97970926  .00000226  00000-0  32300-4 0  9990
2 53163  53.1610  64.9566 0001343  89.6841 270.4304 15.08839142216807
Epoch: 2026-06-19T23:30Z
TLE epoch observation values (Epoch: 2026-06-19T23:30:46.880Z)
Latitude
-0.00003°
Longitude
164.06033°
Altitude
540.631 km
Speed
7.593 km/s
True Right ascension
04h 19m 49s
True Declination
0° 00' 00"
Sunlit
Object was in daylight at epoch
Visualization orbit readout
Latitude
Unknown
Longitude
Unknown
Altitude
Unknown
Speed
Unknown
Apparent Right ascension
Unknown
Apparent Declination
Unknown
Sunlit
N/A
Visualization observer readout
Local Sidereal Time
21:33:01
Azimuth
Unknown
Elevation
Unknown
Doppler factor
Unknown
Orbital elements
Apogee altitude
540.929 km
Perigee altitude
539.071 km
Semi-major axis
6,918.137 km
Eccentricity
0.00013
Inclination
53.161°
RAAN
64.9566°
Arg. of periapsis
89.6841°
True anomaly
270.41501°
Mean anomaly
270.4304°
Eccentric anomaly
270.42271°
Mean motion
3.77189 °/min
Orbital period
95.44 mins
BSTAR
0.0000323
Loading maneuver chart data...
Computing Atmospheric mass density...
Loading historical data...
Loading historical data...
Loading historical data...
Loading historical data...
Loading historical data...
Loading historical data...
Loading historical data...

Documentation

Showing up to 5 results
|